OMD117 KBWI-KFLL

Flight info

Callsign OMD117
Flight time 2h 20m
Altitude 36000
Route CONLE5 SCOOB EARZZ CHIEZ Y291 MAJIK CUUDA3
Aircraft A320/M-SDE3FGHIRWY/LB1

Departure

Time 2026-05-04 22:12
Airport Baltimore/Washington International Thurgood Marshall Airport (KBWI)

Arrival

Time 2026-05-05 00:33
Airport Fort Lauderdale Hollywood International Airport (KFLL)
Time Latitude Longitude Altitude Speed Heading
2026-05-04 22:00 39.18443 -76.66977 163 ft 0 kts 233°
2026-05-04 22:04 39.18443 -76.66976 163 ft 2 kts 233°
2026-05-04 22:04 39.18459 -76.66951 163 ft 4 kts 219°
2026-05-04 22:04 39.18482 -76.66935 164 ft 4 kts 180°
2026-05-04 22:04 39.18498 -76.66941 166 ft 1 kts 142°
2026-05-04 22:05 39.18501 -76.66943 166 ft 1 kts 142°
2026-05-04 22:06 39.18477 -76.66920 164 ft 9 kts 141°
2026-05-04 22:06 39.18408 -76.66847 157 ft 16 kts 126°
2026-05-04 22:07 39.18429 -76.66758 156 ft 6 kts 54°
2026-05-04 22:07 39.18460 -76.66697 156 ft 10 kts 52°
2026-05-04 22:07 39.18507 -76.66617 157 ft 13 kts 57°
2026-05-04 22:07 39.18559 -76.66517 157 ft 15 kts 54°
2026-05-04 22:08 39.18554 -76.66405 156 ft 16 kts 144°
2026-05-04 22:08 39.18449 -76.66313 155 ft 20 kts 143°
2026-05-04 22:08 39.18350 -76.66208 152 ft 19 kts 142°
2026-05-04 22:08 39.18245 -76.66111 149 ft 19 kts 144°
2026-05-04 22:09 39.18131 -76.66005 150 ft 21 kts 145°
2026-05-04 22:09 39.18041 -76.65997 153 ft 12 kts 211°
2026-05-04 22:09 39.17973 -76.65987 149 ft 11 kts 149°
2026-05-04 22:09 39.17887 -76.65917 147 ft 17 kts 147°
2026-05-04 22:10 39.17779 -76.65835 146 ft 19 kts 150°
2026-05-04 22:10 39.17663 -76.65747 146 ft 18 kts 149°
2026-05-04 22:10 39.17582 -76.65679 143 ft 15 kts 147°
2026-05-04 22:10 39.17472 -76.65660 143 ft 17 kts 185°
2026-05-04 22:11 39.17418 -76.65569 142 ft 12 kts 103°
2026-05-04 22:11 39.17346 -76.65522 141 ft 14 kts 181°
2026-05-04 22:11 39.17280 -76.65555 140 ft 6 kts 257°
2026-05-04 22:11 39.17284 -76.65623 140 ft 9 kts 265°
2026-05-04 22:12 39.17296 -76.65795 143 ft 41 kts 272°
2026-05-04 22:12 39.17339 -76.66628 152 ft 139 kts 273°
2026-05-04 22:12 39.17428 -76.68133 400 ft 193 kts 272°
2026-05-04 22:12 39.17535 -76.69923 1484 ft 202 kts 271°
2026-05-04 22:13 39.17647 -76.71850 2483 ft 228 kts 272°
2026-05-04 22:13 39.17545 -76.73964 3205 ft 246 kts 250°
2026-05-04 22:13 39.16605 -76.75822 4182 ft 254 kts 219°
2026-05-04 22:13 39.14985 -76.76713 5319 ft 262 kts 187°
2026-05-04 22:14 39.13177 -76.76256 6379 ft 277 kts 156°
2026-05-04 22:14 39.11559 -76.74819 6834 ft 286 kts 144°
2026-05-04 22:14 39.10067 -76.73112 7000 ft 288 kts 140°
2026-05-04 22:14 39.08633 -76.71310 7041 ft 289 kts 139°
2026-05-04 22:15 39.07201 -76.69485 7047 ft 289 kts 139°
2026-05-04 22:15 39.05764 -76.67687 7048 ft 288 kts 140°
2026-05-04 22:15 39.04312 -76.65907 7049 ft 288 kts 139°
2026-05-04 22:15 39.02973 -76.63952 7240 ft 297 kts 133°
2026-05-04 22:16 39.01636 -76.61917 8290 ft 298 kts 133°
2026-05-04 22:16 39.00276 -76.59871 9317 ft 304 kts 134°
2026-05-04 22:16 38.98884 -76.57788 10218 ft 312 kts 134°
2026-05-04 22:16 38.97412 -76.55596 10643 ft 336 kts 134°
2026-05-04 22:17 38.95808 -76.53324 11238 ft 348 kts 140°
2026-05-04 22:17 38.93853 -76.51485 12028 ft 349 kts 155°
2026-05-04 22:17 38.91616 -76.50292 12778 ft 349 kts 169°
2026-05-04 22:17 38.89232 -76.49854 13604 ft 346 kts 184°
2026-05-04 22:18 38.86852 -76.50126 13934 ft 341 kts 197°
2026-05-04 22:18 38.84547 -76.50824 14033 ft 338 kts 202°
2026-05-04 22:18 38.82353 -76.51878 14048 ft 336 kts 206°
2026-05-04 22:18 38.80180 -76.52964 14047 ft 336 kts 206°
2026-05-04 22:19 38.78005 -76.54042 14049 ft 335 kts 206°
2026-05-04 22:19 38.75827 -76.55116 14049 ft 335 kts 206°
2026-05-04 22:19 38.73648 -76.56185 14047 ft 335 kts 206°
2026-05-04 22:19 38.71465 -76.57255 14045 ft 335 kts 206°
2026-05-04 22:20 38.69286 -76.58323 14049 ft 335 kts 206°
2026-05-04 22:20 38.67084 -76.59381 14427 ft 341 kts 205°
2026-05-04 22:20 38.64854 -76.60420 15309 ft 342 kts 205°
2026-05-04 22:20 38.62604 -76.61455 16093 ft 345 kts 204°
2026-05-04 22:21 38.60326 -76.62496 16853 ft 349 kts 204°
2026-05-04 22:21 38.58029 -76.63546 17612 ft 353 kts 204°
2026-05-04 22:21 38.55704 -76.64611 18352 ft 357 kts 204°
2026-05-04 22:21 38.53350 -76.65694 19030 ft 361 kts 205°
2026-05-04 22:22 38.50971 -76.66794 19699 ft 366 kts 205°
2026-05-04 22:22 38.48566 -76.67901 20380 ft 370 kts 205°
2026-05-04 22:22 38.46131 -76.69021 21030 ft 374 kts 205°
2026-05-04 22:22 38.43662 -76.70138 21674 ft 380 kts 202°
2026-05-04 22:23 38.41046 -76.70862 22296 ft 391 kts 192°
2026-05-04 22:23 38.38291 -76.70957 22943 ft 403 kts 181°
2026-05-04 22:23 38.35483 -76.70531 23581 ft 410 kts 178°
2026-05-04 22:23 38.32639 -76.70063 24131 ft 413 kts 178°
2026-05-04 22:24 38.29775 -76.69598 24682 ft 417 kts 179°
2026-05-04 22:24 38.26923 -76.69141 25211 ft 420 kts 179°
2026-05-04 22:24 38.24009 -76.68674 25737 ft 424 kts 179°
2026-05-04 22:24 38.21072 -76.68202 26262 ft 427 kts 179°
2026-05-04 22:25 38.18117 -76.67729 26768 ft 430 kts 180°
2026-05-04 22:25 38.15091 -76.67246 27269 ft 434 kts 180°
2026-05-04 22:25 38.12130 -76.66775 27740 ft 437 kts 180°
2026-05-04 22:25 38.09102 -76.66315 28208 ft 439 kts 181°
2026-05-04 22:26 38.06052 -76.65984 28686 ft 440 kts 184°
2026-05-04 22:26 38.02991 -76.65768 29170 ft 442 kts 185°
2026-05-04 22:26 37.99912 -76.65615 29640 ft 444 kts 186°
2026-05-04 22:26 37.96811 -76.65476 30086 ft 447 kts 186°
2026-05-04 22:27 37.93689 -76.65322 30490 ft 451 kts 185°
2026-05-04 22:27 37.90553 -76.65146 30922 ft 453 kts 185°
2026-05-04 22:27 37.87393 -76.64944 31356 ft 455 kts 185°
2026-05-04 22:27 37.84224 -76.64727 31780 ft 457 kts 184°
2026-05-04 22:28 37.81041 -76.64503 32195 ft 459 kts 184°
2026-05-04 22:28 37.77860 -76.64276 32797 ft 456 kts 185°
2026-05-04 22:28 37.74704 -76.64050 33439 ft 452 kts 185°
2026-05-04 22:28 37.71573 -76.63831 34073 ft 449 kts 185°
2026-05-04 22:29 37.68465 -76.63621 34603 ft 446 kts 185°
2026-05-04 22:29 37.65374 -76.63418 35099 ft 444 kts 185°
2026-05-04 22:29 37.62291 -76.63221 35564 ft 443 kts 185°
2026-05-04 22:29 37.59226 -76.63095 35884 ft 438 kts 190°
2026-05-04 22:30 37.56225 -76.63422 35957 ft 427 kts 194°
2026-05-04 22:30 37.50381 -76.64227 35970 ft 420 kts 195°
2026-05-04 22:31 37.44590 -76.65032 35970 ft 418 kts 195°
2026-05-04 22:31 37.38820 -76.65821 35969 ft 417 kts 195°
2026-05-04 22:32 37.33068 -76.66609 35972 ft 416 kts 195°
2026-05-04 22:32 37.27323 -76.67387 35972 ft 416 kts 195°
2026-05-04 22:33 37.21574 -76.68171 35977 ft 415 kts 195°
2026-05-04 22:33 37.16798 -76.68825 35977 ft 415 kts 196°
2026-05-04 22:34 37.11059 -76.69605 35980 ft 415 kts 195°
2026-05-04 22:34 37.05324 -76.70376 35983 ft 414 kts 196°
2026-05-04 22:35 36.99594 -76.71147 35984 ft 414 kts 196°
2026-05-04 22:35 36.93861 -76.71916 35987 ft 413 kts 196°
2026-05-04 22:36 36.88142 -76.72686 36005 ft 413 kts 196°
2026-05-04 22:36 36.82434 -76.73456 36015 ft 412 kts 196°
2026-05-04 22:37 36.76734 -76.74223 36015 ft 412 kts 196°
2026-05-04 22:37 36.71037 -76.74989 36020 ft 412 kts 196°
2026-05-04 22:38 36.65347 -76.75752 36022 ft 411 kts 196°
2026-05-04 22:38 36.59660 -76.76517 36016 ft 410 kts 196°
2026-05-04 22:39 36.53987 -76.77267 36013 ft 410 kts 196°
2026-05-04 22:39 36.48352 -76.78015 36007 ft 409 kts 196°
2026-05-04 22:40 36.42692 -76.78778 36009 ft 409 kts 196°
2026-05-04 22:40 36.37026 -76.79536 36017 ft 409 kts 196°
2026-05-04 22:41 36.31370 -76.80289 36021 ft 408 kts 196°
2026-05-04 22:41 36.25724 -76.81034 36022 ft 408 kts 196°
2026-05-04 22:42 36.20081 -76.81780 36031 ft 407 kts 196°
2026-05-04 22:42 36.14450 -76.82517 36035 ft 407 kts 196°
2026-05-04 22:43 36.08828 -76.83258 36038 ft 406 kts 196°
2026-05-04 22:43 36.03209 -76.83999 36040 ft 405 kts 197°
2026-05-04 22:44 35.97605 -76.84741 36036 ft 405 kts 197°
2026-05-04 22:44 35.92027 -76.85559 36039 ft 398 kts 202°
2026-05-04 22:44 35.89403 -76.86456 36034 ft 386 kts 210°
2026-05-04 22:45 35.86928 -76.87689 36031 ft 384 kts 211°
2026-05-04 22:45 35.79510 -76.91404 36035 ft 383 kts 211°
2026-05-04 22:46 35.74562 -76.93867 36054 ft 383 kts 211°
2026-05-04 22:46 35.69627 -76.96317 36059 ft 382 kts 211°
2026-05-04 22:47 35.64694 -76.98769 36061 ft 382 kts 211°
2026-05-04 22:47 35.59768 -77.01219 36065 ft 382 kts 211°
2026-05-04 22:48 35.54847 -77.03661 36065 ft 381 kts 211°
2026-05-04 22:48 35.49927 -77.06103 36065 ft 381 kts 211°
2026-05-04 22:49 35.45022 -77.08532 36063 ft 380 kts 211°
2026-05-04 22:49 35.40112 -77.10953 36064 ft 380 kts 212°
2026-05-04 22:50 35.35218 -77.13373 36068 ft 379 kts 212°
2026-05-04 22:50 35.30352 -77.15772 36080 ft 379 kts 212°
2026-05-04 22:51 35.25468 -77.18173 36090 ft 378 kts 212°
2026-05-04 22:51 35.20587 -77.20570 36093 ft 378 kts 212°
2026-05-04 22:52 35.15715 -77.22960 36094 ft 377 kts 212°
2026-05-04 22:52 35.10856 -77.25346 36095 ft 376 kts 212°
2026-05-04 22:53 35.06007 -77.27723 36096 ft 375 kts 212°
2026-05-04 22:53 35.01163 -77.30092 36096 ft 375 kts 212°
2026-05-04 22:54 34.96327 -77.32452 36095 ft 374 kts 212°
2026-05-04 22:54 34.91502 -77.34801 36098 ft 373 kts 212°
2026-05-04 22:55 34.86686 -77.37142 36100 ft 372 kts 212°
2026-05-04 22:55 34.81884 -77.39483 36098 ft 371 kts 212°
2026-05-04 22:56 34.77090 -77.41811 36095 ft 371 kts 212°
2026-05-04 22:56 34.72299 -77.44139 36100 ft 370 kts 212°
2026-05-04 22:57 34.67523 -77.46458 36101 ft 369 kts 212°
2026-05-04 22:57 34.62752 -77.48764 36102 ft 368 kts 212°
2026-05-04 22:58 34.57991 -77.51059 36103 ft 368 kts 212°
2026-05-04 22:58 34.53274 -77.53337 36101 ft 367 kts 212°
2026-05-04 22:59 34.50777 -77.54282 36098 ft 378 kts 203°
2026-05-04 22:59 34.48180 -77.54874 36096 ft 380 kts 202°
2026-05-04 22:59 34.42999 -77.56014 36095 ft 380 kts 202°
2026-05-04 23:00 34.37802 -77.57154 36095 ft 379 kts 202°
2026-05-04 23:00 34.32620 -77.58295 36100 ft 378 kts 202°
2026-05-04 23:01 34.27444 -77.59432 36103 ft 377 kts 202°
2026-05-04 23:01 34.22291 -77.60563 36103 ft 376 kts 202°
2026-05-04 23:02 34.17145 -77.61697 36106 ft 375 kts 203°
2026-05-04 23:02 34.12027 -77.62830 36106 ft 373 kts 203°
2026-05-04 23:03 34.06923 -77.63951 36097 ft 371 kts 203°
2026-05-04 23:03 34.01852 -77.65055 36095 ft 369 kts 203°
2026-05-04 23:04 33.96810 -77.66158 36093 ft 368 kts 203°
2026-05-04 23:04 33.91766 -77.67259 36097 ft 368 kts 203°
2026-05-04 23:05 33.86727 -77.68357 36099 ft 368 kts 202°
2026-05-04 23:05 33.81681 -77.69459 36096 ft 369 kts 202°
2026-05-04 23:06 33.76628 -77.70559 36099 ft 369 kts 202°
2026-05-04 23:06 33.71610 -77.71650 36102 ft 369 kts 202°
2026-05-04 23:07 33.66627 -77.72928 36109 ft 362 kts 207°
2026-05-04 23:07 33.61769 -77.74521 36106 ft 362 kts 207°
2026-05-04 23:08 33.56907 -77.76113 36103 ft 362 kts 206°
2026-05-04 23:08 33.52048 -77.77699 36101 ft 362 kts 206°
2026-05-04 23:09 33.47188 -77.79289 36109 ft 362 kts 206°
2026-05-04 23:09 33.42316 -77.80871 36109 ft 362 kts 206°
2026-05-04 23:10 33.37459 -77.82455 36109 ft 362 kts 206°
2026-05-04 23:10 33.32600 -77.84038 36114 ft 362 kts 206°
2026-05-04 23:11 33.27739 -77.85621 36114 ft 362 kts 206°
2026-05-04 23:11 33.22884 -77.87201 36116 ft 362 kts 206°
2026-05-04 23:12 33.18021 -77.88770 36119 ft 362 kts 206°
2026-05-04 23:12 33.13155 -77.90344 36122 ft 362 kts 206°
2026-05-04 23:13 33.08329 -77.91907 36121 ft 362 kts 206°
2026-05-04 23:13 33.03471 -77.93483 36118 ft 361 kts 206°
2026-05-04 23:14 32.98638 -77.95125 36122 ft 360 kts 206°
2026-05-04 23:14 32.93823 -77.96792 36117 ft 361 kts 206°
2026-05-04 23:15 32.88999 -77.98451 36120 ft 361 kts 206°
2026-05-04 23:15 32.84168 -78.00100 36116 ft 361 kts 206°
2026-05-04 23:16 32.79342 -78.01747 36117 ft 361 kts 206°
2026-05-04 23:16 32.74512 -78.03388 36117 ft 361 kts 206°
2026-05-04 23:17 32.70495 -78.04756 36119 ft 361 kts 206°
2026-05-04 23:17 32.65665 -78.06401 36118 ft 361 kts 206°
2026-05-04 23:18 32.60823 -78.08038 36121 ft 362 kts 206°
2026-05-04 23:18 32.56029 -78.09669 36120 ft 362 kts 206°
2026-05-04 23:19 32.51188 -78.11317 36118 ft 362 kts 206°
2026-05-04 23:19 32.46343 -78.12953 36115 ft 362 kts 206°
2026-05-04 23:20 32.41497 -78.14594 36119 ft 362 kts 206°
2026-05-04 23:20 32.36649 -78.16229 36117 ft 363 kts 206°
2026-05-04 23:21 32.31793 -78.17861 36123 ft 363 kts 205°
2026-05-04 23:21 32.26937 -78.19497 36117 ft 363 kts 206°
2026-05-04 23:22 32.22080 -78.21129 36123 ft 363 kts 205°
2026-05-04 23:22 32.17220 -78.22766 36118 ft 363 kts 206°
2026-05-04 23:23 32.12388 -78.24394 36115 ft 363 kts 205°
2026-05-04 23:23 32.07494 -78.26035 36110 ft 364 kts 205°
2026-05-04 23:24 32.02649 -78.27649 36115 ft 364 kts 205°
2026-05-04 23:24 31.97777 -78.29279 36113 ft 364 kts 205°
2026-05-04 23:25 31.92899 -78.30908 36113 ft 364 kts 205°
2026-05-04 23:25 31.88022 -78.32541 36113 ft 364 kts 205°
2026-05-04 23:26 31.83142 -78.34177 36120 ft 365 kts 205°
2026-05-04 23:26 31.78254 -78.35806 36119 ft 365 kts 205°
2026-05-04 23:27 31.73366 -78.37428 36119 ft 365 kts 205°
2026-05-04 23:27 31.68470 -78.39056 36118 ft 366 kts 205°
2026-05-04 23:28 31.63573 -78.40681 36116 ft 366 kts 205°
2026-05-04 23:28 31.58672 -78.42306 36111 ft 366 kts 205°
2026-05-04 23:29 31.53766 -78.43928 36110 ft 366 kts 205°
2026-05-04 23:29 31.48856 -78.45549 36114 ft 367 kts 205°
2026-05-04 23:30 31.43932 -78.47148 36116 ft 367 kts 205°
2026-05-04 23:30 31.39002 -78.48742 36108 ft 368 kts 205°
2026-05-04 23:31 31.34065 -78.50343 36109 ft 368 kts 205°
2026-05-04 23:31 31.29131 -78.51939 36105 ft 368 kts 205°
2026-05-04 23:32 31.24188 -78.53538 36104 ft 369 kts 205°
2026-05-04 23:32 31.19235 -78.55131 36101 ft 369 kts 205°
2026-05-04 23:33 31.14279 -78.56726 36106 ft 370 kts 205°
2026-05-04 23:33 31.09314 -78.58323 36101 ft 370 kts 205°
2026-05-04 23:34 31.04374 -78.59909 36100 ft 371 kts 205°
2026-05-04 23:34 30.99401 -78.61515 36099 ft 371 kts 205°
2026-05-04 23:35 30.94418 -78.63122 36099 ft 372 kts 205°
2026-05-04 23:35 30.89428 -78.64721 36096 ft 372 kts 205°
2026-05-04 23:36 30.84429 -78.66323 36093 ft 373 kts 205°
2026-05-04 23:36 30.79430 -78.67927 36089 ft 373 kts 205°
2026-05-04 23:37 30.74420 -78.69530 36096 ft 374 kts 205°
2026-05-04 23:37 30.69404 -78.71135 36086 ft 374 kts 205°
2026-05-04 23:38 30.64376 -78.72738 36089 ft 375 kts 205°
2026-05-04 23:38 30.59349 -78.74347 36087 ft 375 kts 205°
2026-05-04 23:39 30.54307 -78.75952 36086 ft 376 kts 205°
2026-05-04 23:39 30.49260 -78.77550 36081 ft 376 kts 205°
2026-05-04 23:40 30.44145 -78.79180 36110 ft 389 kts 204°
2026-05-04 23:40 30.38885 -78.80864 36106 ft 394 kts 204°
2026-05-04 23:41 30.33581 -78.82542 36107 ft 395 kts 204°
2026-05-04 23:41 30.28271 -78.84217 36108 ft 396 kts 204°
2026-05-04 23:42 30.22956 -78.85890 36109 ft 396 kts 204°
2026-05-04 23:42 30.17636 -78.87571 36100 ft 396 kts 204°
2026-05-04 23:43 30.12320 -78.89255 36094 ft 396 kts 204°
2026-05-04 23:43 30.06996 -78.90938 36090 ft 397 kts 204°
2026-05-04 23:44 30.01666 -78.92622 36085 ft 397 kts 203°
2026-05-04 23:44 29.96330 -78.94301 36084 ft 398 kts 203°
2026-05-04 23:45 29.90981 -78.95978 36082 ft 398 kts 203°
2026-05-04 23:45 29.85633 -78.97655 36081 ft 399 kts 203°
2026-05-04 23:46 29.80294 -78.99274 36081 ft 403 kts 198°
2026-05-04 23:46 29.74729 -79.00314 36081 ft 406 kts 197°
2026-05-04 23:47 29.69148 -79.01335 36083 ft 406 kts 197°
2026-05-04 23:47 29.63570 -79.02368 36083 ft 406 kts 197°
2026-05-04 23:48 29.57979 -79.03396 36079 ft 407 kts 197°
2026-05-04 23:48 29.52382 -79.04428 36081 ft 407 kts 197°
2026-05-04 23:49 29.46789 -79.05458 36083 ft 407 kts 197°
2026-05-04 23:49 29.41188 -79.06487 36084 ft 408 kts 197°
2026-05-04 23:50 29.35586 -79.07518 36082 ft 408 kts 197°
2026-05-04 23:50 29.29984 -79.08552 36084 ft 408 kts 197°
2026-05-04 23:51 29.24378 -79.09578 36088 ft 408 kts 197°
2026-05-04 23:51 29.18771 -79.10600 36082 ft 408 kts 197°
2026-05-04 23:52 29.13157 -79.11630 36087 ft 408 kts 197°
2026-05-04 23:52 29.07588 -79.12651 36088 ft 408 kts 197°
2026-05-04 23:53 29.01980 -79.13669 36089 ft 408 kts 197°
2026-05-04 23:53 28.96369 -79.14692 36086 ft 408 kts 197°
2026-05-04 23:54 28.90759 -79.15716 36086 ft 408 kts 197°
2026-05-04 23:54 28.85149 -79.16729 36088 ft 408 kts 197°
2026-05-04 23:55 28.79542 -79.17744 36088 ft 408 kts 197°
2026-05-04 23:56 28.71136 -79.19278 36087 ft 408 kts 197°
2026-05-04 23:56 28.65531 -79.20297 36089 ft 408 kts 197°
2026-05-04 23:57 28.59923 -79.21307 36089 ft 408 kts 197°
2026-05-04 23:57 28.54313 -79.22316 36086 ft 408 kts 197°
2026-05-04 23:58 28.48714 -79.23331 36083 ft 408 kts 197°
2026-05-04 23:58 28.43105 -79.24338 36085 ft 408 kts 197°
2026-05-04 23:59 28.37500 -79.25348 36087 ft 407 kts 197°
2026-05-04 23:59 28.32850 -79.26205 36081 ft 405 kts 199°
2026-05-05 00:00 28.27465 -79.27879 36081 ft 400 kts 204°
2026-05-05 00:00 28.22106 -79.29621 36083 ft 401 kts 204°
2026-05-05 00:01 28.16749 -79.31362 36082 ft 401 kts 204°
2026-05-05 00:01 28.11383 -79.33104 36081 ft 400 kts 204°
2026-05-05 00:02 28.06030 -79.34829 36076 ft 400 kts 203°
2026-05-05 00:02 28.00669 -79.36556 36077 ft 400 kts 204°
2026-05-05 00:03 27.95318 -79.38292 36072 ft 400 kts 204°
2026-05-05 00:03 27.89970 -79.40023 36053 ft 400 kts 204°
2026-05-05 00:03 27.87262 -79.40899 35802 ft 408 kts 204°
2026-05-05 00:04 27.84526 -79.41783 35551 ft 409 kts 203°
2026-05-05 00:04 27.81792 -79.42662 35316 ft 408 kts 203°
2026-05-05 00:04 27.79067 -79.43534 35073 ft 406 kts 203°
2026-05-05 00:04 27.76358 -79.44398 34735 ft 402 kts 203°
2026-05-05 00:05 27.73716 -79.45244 34248 ft 399 kts 203°
2026-05-05 00:05 27.71052 -79.46100 33700 ft 397 kts 203°
2026-05-05 00:05 27.68375 -79.46961 33186 ft 393 kts 203°
2026-05-05 00:05 27.65792 -79.47792 32691 ft 390 kts 203°
2026-05-05 00:06 27.63195 -79.48627 32193 ft 387 kts 204°
2026-05-05 00:06 27.60612 -79.49457 31700 ft 385 kts 204°
2026-05-05 00:06 27.58045 -79.50280 31214 ft 383 kts 204°
2026-05-05 00:06 27.55485 -79.51100 30736 ft 381 kts 204°
2026-05-05 00:07 27.52938 -79.51917 30264 ft 380 kts 204°
2026-05-05 00:07 27.50393 -79.52735 29747 ft 379 kts 204°
2026-05-05 00:07 27.47865 -79.53545 29292 ft 376 kts 204°
2026-05-05 00:07 27.45354 -79.54347 28843 ft 374 kts 204°
2026-05-05 00:08 27.42855 -79.55144 28414 ft 372 kts 204°
2026-05-05 00:08 27.40370 -79.55937 27984 ft 370 kts 204°
2026-05-05 00:08 27.37885 -79.56728 27503 ft 371 kts 203°
2026-05-05 00:08 27.35400 -79.57515 27021 ft 370 kts 203°
2026-05-05 00:09 27.32919 -79.58296 26552 ft 370 kts 203°
2026-05-05 00:09 27.30439 -79.59074 26079 ft 370 kts 203°
2026-05-05 00:09 27.27970 -79.59848 25694 ft 366 kts 203°
2026-05-05 00:09 27.25511 -79.60622 25256 ft 365 kts 202°
2026-05-05 00:10 27.23066 -79.61392 24749 ft 366 kts 202°
2026-05-05 00:10 27.20634 -79.62157 24428 ft 360 kts 202°
2026-05-05 00:10 27.18224 -79.62913 23995 ft 358 kts 202°
2026-05-05 00:10 27.15829 -79.63675 23550 ft 357 kts 202°
2026-05-05 00:11 27.13450 -79.64437 23043 ft 354 kts 202°
2026-05-05 00:11 27.11090 -79.65197 22548 ft 352 kts 202°
2026-05-05 00:11 27.08746 -79.65952 22068 ft 349 kts 202°
2026-05-05 00:11 27.06418 -79.66701 21599 ft 347 kts 202°
2026-05-05 00:12 27.04133 -79.67435 21140 ft 345 kts 202°
2026-05-05 00:12 27.01805 -79.68179 20684 ft 342 kts 202°
2026-05-05 00:12 26.99526 -79.68907 20267 ft 339 kts 202°
2026-05-05 00:12 26.97295 -79.69621 19814 ft 337 kts 202°
2026-05-05 00:13 26.95040 -79.70342 19299 ft 338 kts 202°
2026-05-05 00:13 26.92793 -79.71058 18924 ft 334 kts 202°
2026-05-05 00:13 26.90559 -79.71770 18503 ft 332 kts 202°
2026-05-05 00:13 26.89810 -79.72008 18336 ft 332 kts 202°
2026-05-05 00:14 26.89072 -79.72243 18127 ft 333 kts 202°
2026-05-05 00:14 26.86801 -79.72991 17722 ft 327 kts 202°
2026-05-05 00:14 26.84606 -79.73693 17240 ft 326 kts 201°
2026-05-05 00:14 26.82432 -79.74376 16780 ft 325 kts 201°
2026-05-05 00:15 26.80262 -79.75056 16353 ft 322 kts 200°
2026-05-05 00:15 26.78116 -79.75727 15941 ft 319 kts 200°
2026-05-05 00:15 26.75984 -79.76394 15537 ft 317 kts 200°
2026-05-05 00:15 26.73869 -79.77059 15132 ft 315 kts 200°
2026-05-05 00:16 26.71771 -79.77720 14736 ft 313 kts 199°
2026-05-05 00:16 26.69679 -79.78390 14318 ft 311 kts 200°
2026-05-05 00:16 26.67634 -79.79145 13922 ft 309 kts 202°
2026-05-05 00:16 26.65622 -79.79965 13494 ft 307 kts 203°
2026-05-05 00:17 26.63632 -79.80806 13094 ft 304 kts 204°
2026-05-05 00:17 26.61666 -79.81638 12707 ft 301 kts 204°
2026-05-05 00:17 26.59716 -79.82458 12326 ft 299 kts 203°
2026-05-05 00:17 26.57773 -79.83265 11944 ft 296 kts 203°
2026-05-05 00:18 26.55846 -79.84055 11562 ft 294 kts 203°
2026-05-05 00:18 26.53942 -79.84866 11187 ft 292 kts 205°
2026-05-05 00:18 26.52073 -79.85733 10811 ft 290 kts 205°
2026-05-05 00:18 26.50227 -79.86619 10440 ft 288 kts 206°
2026-05-05 00:19 26.48393 -79.87506 10081 ft 287 kts 206°
2026-05-05 00:19 26.46570 -79.88379 9693 ft 285 kts 205°
2026-05-05 00:19 26.44749 -79.89244 9307 ft 283 kts 205°
2026-05-05 00:19 26.42941 -79.90099 8943 ft 281 kts 205°
2026-05-05 00:20 26.41150 -79.90943 8586 ft 279 kts 205°
2026-05-05 00:20 26.39364 -79.91781 8226 ft 277 kts 205°
2026-05-05 00:20 26.37640 -79.92709 7912 ft 273 kts 212°
2026-05-05 00:20 26.36003 -79.93773 7768 ft 273 kts 211°
2026-05-05 00:21 26.34356 -79.94833 7600 ft 274 kts 211°
2026-05-05 00:21 26.32702 -79.95892 7420 ft 274 kts 211°
2026-05-05 00:21 26.31050 -79.96949 7248 ft 274 kts 211°
2026-05-05 00:21 26.29397 -79.98005 7071 ft 274 kts 211°
2026-05-05 00:22 26.27745 -79.99061 6896 ft 274 kts 211°
2026-05-05 00:22 26.26089 -80.00121 6719 ft 275 kts 211°
2026-05-05 00:22 26.24434 -80.01181 6538 ft 274 kts 211°
2026-05-05 00:22 26.22782 -80.02241 6355 ft 274 kts 211°
2026-05-05 00:23 26.21132 -80.03304 6173 ft 274 kts 211°
2026-05-05 00:23 26.19516 -80.04419 6044 ft 273 kts 218°
2026-05-05 00:23 26.18189 -80.05925 6026 ft 273 kts 234°
2026-05-05 00:23 26.17285 -80.07779 6028 ft 273 kts 250°
2026-05-05 00:24 26.16685 -80.09774 5843 ft 271 kts 252°
2026-05-05 00:24 26.16087 -80.11765 5451 ft 271 kts 251°
2026-05-05 00:24 26.15483 -80.13761 5054 ft 273 kts 251°
2026-05-05 00:24 26.15054 -80.15815 4659 ft 274 kts 264°
2026-05-05 00:25 26.15024 -80.17935 4246 ft 275 kts 270°
2026-05-05 00:25 26.15038 -80.20064 3857 ft 275 kts 270°
2026-05-05 00:25 26.15048 -80.22199 3477 ft 276 kts 270°
2026-05-05 00:25 26.15060 -80.24334 3132 ft 276 kts 270°
2026-05-05 00:26 26.15075 -80.26454 2887 ft 271 kts 271°
2026-05-05 00:26 26.15102 -80.28504 2764 ft 260 kts 271°
2026-05-05 00:26 26.15113 -80.30478 2640 ft 249 kts 269°
2026-05-05 00:26 26.14732 -80.32295 2518 ft 237 kts 239°
2026-05-05 00:27 26.13624 -80.33547 2390 ft 223 kts 205°
2026-05-05 00:27 26.12179 -80.34014 2176 ft 214 kts 185°
2026-05-05 00:27 26.10732 -80.34229 2031 ft 213 kts 183°
2026-05-05 00:27 26.09242 -80.34359 2014 ft 211 kts 171°
2026-05-05 00:28 26.08035 -80.33710 2034 ft 186 kts 126°
2026-05-05 00:28 26.07716 -80.32467 2015 ft 161 kts 84°
2026-05-05 00:28 26.07795 -80.31337 2026 ft 136 kts 90°
2026-05-05 00:28 26.07776 -80.30326 2017 ft 126 kts 88°
2026-05-05 00:29 26.07765 -80.29359 2020 ft 124 kts 89°
2026-05-05 00:29 26.07757 -80.28408 1983 ft 122 kts 89°
2026-05-05 00:29 26.07751 -80.27460 1877 ft 122 kts 89°
2026-05-05 00:29 26.07746 -80.26522 1745 ft 121 kts 88°
2026-05-05 00:30 26.07741 -80.25584 1596 ft 121 kts 89°
2026-05-05 00:30 26.07736 -80.24648 1441 ft 122 kts 88°
2026-05-05 00:30 26.07731 -80.23714 1291 ft 120 kts 88°
2026-05-05 00:30 26.07726 -80.22792 1124 ft 119 kts 88°
2026-05-05 00:31 26.07722 -80.21870 963 ft 120 kts 88°
2026-05-05 00:31 26.07717 -80.20937 814 ft 120 kts 89°
2026-05-05 00:31 26.07712 -80.20009 667 ft 121 kts 88°
2026-05-05 00:31 26.07707 -80.19076 514 ft 120 kts 90°
2026-05-05 00:32 26.07702 -80.18131 350 ft 121 kts 91°
2026-05-05 00:32 26.07696 -80.17194 200 ft 122 kts 89°
2026-05-05 00:32 26.07696 -80.16263 36 ft 120 kts 91°
2026-05-05 00:32 26.07691 -80.15464 16 ft 82 kts 91°
2026-05-05 00:33 26.07677 -80.15022 17 ft 29 kts 101°
2026-05-05 00:33 26.07611 -80.14902 18 ft 15 kts 120°
2026-05-05 00:33 26.07526 -80.14854 16 ft 17 kts 210°
2026-05-05 00:33 26.07431 -80.14958 16 ft 21 kts 225°
2026-05-05 00:34 26.07325 -80.15080 17 ft 18 kts 230°
2026-05-05 00:34 26.07245 -80.15111 16 ft 0 kts 141°
2026-05-05 00:34 26.07193 -80.15111 16 ft 21 kts 184°
2026-05-05 00:34 26.07030 -80.15129 16 ft 24 kts 180°
2026-05-05 00:35 26.06913 -80.15111 16 ft 8 kts 116°
2026-05-05 00:35 26.06909 -80.15061 16 ft 0 kts 92°
2026-05-05 00:35 26.06909 -80.15056 16 ft 0 kts 92°
2026-05-05 00:35 26.06909 -80.15054 16 ft 2 kts 92°
2026-05-05 00:36 26.06899 -80.15007 18 ft 9 kts 127°
2026-05-05 00:36 26.06876 -80.14975 16 ft 1 kts 141°
2026-05-05 00:36 26.06828 -80.14962 17 ft 8 kts 224°
2026-05-05 00:36 26.06827 -80.14983 16 ft 4 kts 285°
2026-05-05 00:37 26.06857 -80.14993 16 ft 5 kts
2026-05-05 00:37 26.06859 -80.14993 16 ft 0 kts